TimePDT,TemperatureF,Dew PointF,Humidity,Sea Level PressureIn,VisibilityMPH,Wind Direction,Wind SpeedMPH,Gust SpeedMPH,PrecipitationIn,Events,Conditions,WindDirDegrees,DateUTC
12:55 AM,71.1,48.9,45,29.93,10.0,NW,6.9,-,N/A,,Clear,320,2013-08-17 07:55:00
1:55 AM,70.0,48.9,47,29.93,10.0,NW,5.8,-,N/A,,Clear,320,2013-08-17 08:55:00
2:55 AM,69.1,48.9,49,29.93,10.0,NW,5.8,-,N/A,,Clear,310,2013-08-17 09:55:00
3:55 AM,66.9,50.0,54,29.93,10.0,WSW,4.6,-,N/A,,Clear,240,2013-08-17 10:55:00
4:55 AM,68.0,50.0,52,29.93,10.0,NW,8.1,-,N/A,,Clear,310,2013-08-17 11:55:00
5:55 AM,66.0,51.1,59,29.94,10.0,WNW,6.9,-,N/A,,Clear,300,2013-08-17 12:55:00
6:55 AM,66.0,51.1,59,29.95,10.0,NW,3.5,-,N/A,,Clear,310,2013-08-17 13:55:00
7:55 AM,71.1,51.1,49,29.95,10.0,WNW,8.1,-,N/A,,Clear,300,2013-08-17 14:55:00
8:55 AM,73.9,52.0,46,29.95,10.0,Variable,6.9,-,N/A,,Clear,0,2013-08-17 15:55:00
9:55 AM,75.9,51.1,42,29.95,10.0,WNW,10.4,-,N/A,,Clear,290,2013-08-17 16:55:00
10:55 AM,78.1,53.1,42,29.94,10.0,SW,5.8,-,N/A,,Clear,230,2013-08-17 17:55:00
11:55 AM,80.1,51.1,36,29.93,10.0,SW,5.8,-,N/A,,Clear,230,2013-08-17 18:55:00
12:55 PM,82.0,51.1,34,29.92,10.0,NNW,11.5,-,N/A,,Scattered Clouds,330,2013-08-17 19:55:00
1:55 PM,82.9,50.0,32,29.91,10.0,NW,8.1,-,N/A,,Clear,320,2013-08-17 20:55:00
2:55 PM,84.0,46.0,26,29.91,10.0,NW,13.8,-,N/A,,Partly Cloudy,310,2013-08-17 21:55:00
3:55 PM,82.9,44.1,25,29.90,10.0,NW,13.8,-,N/A,,Clear,320,2013-08-17 22:55:00
4:55 PM,84.0,43.0,24,29.89,10.0,NNW,13.8,-,N/A,,Clear,340,2013-08-17 23:55:00
5:55 PM,84.0,43.0,24,29.89,10.0,WNW,12.7,-,N/A,,Clear,300,2013-08-18 00:55:00
6:55 PM,81.0,46.0,29,29.89,10.0,WNW,16.1,-,N/A,,Clear,300,2013-08-18 01:55:00
7:55 PM,77.0,46.0,33,29.91,10.0,WNW,16.1,-,N/A,,Clear,300,2013-08-18 02:55:00
8:55 PM,73.0,46.0,38,29.93,10.0,NW,10.4,-,N/A,,Clear,310,2013-08-18 03:55:00
9:55 PM,72.0,46.0,40,29.94,10.0,WNW,17.3,-,N/A,,Clear,300,2013-08-18 04:55:00
10:55 PM,70.0,46.0,42,29.96,10.0,WNW,11.5,-,N/A,,Clear,300,2013-08-18 05:55:00
11:55 PM,69.1,46.0,44,29.96,10.0,WNW,11.5,-,N/A,,Clear,300,2013-08-18 06:55:00